Regional Weather Roundup
Issued by NWS

Home | Current Version | Previous Version | Text Only | Print | Product List | Glossary On
Versions: 1 2 3 4 5 6 7 8 9 10 11 12 13 14 15 16 17 18 19 20 21 22 23 24 25 26 27 28 29 30 31 32 33 34 35 36 37 38 39 40 41 42 43 44 45 46 47 48 49 50
258
ASUS43 KDTX 172110
RWRMI
MICHIGAN HOURLY REGIONAL WEATHER ROUNDUP
NATIONAL WEATHER SERVICE DETROIT/PONTIAC MI
400 PM EST TUE JAN 17 2017

NOTE: "FAIR" INDICATES FEW OR NO CLOUDS BELOW 12,000 FEET WITH NO
SIGNIFICANT WEATHER AND/OR OBSTRUCTION TO VISIBILITY.

MIZ047>049-052>055-059>063-066>070-074>076-081>083-172200-
SOUTHEAST LOWER MICHIGAN

CITY           SKY/WX    TMP DP  RH WIND       PRES   REMARKS
ADRIAN         CLOUDY    43  42  97 W13G23    29.83R FOG
ALMA           CLOUDY    35  34  98 NW5       29.81R WCI  31
ANN ARBOR      CLOUDY    43  42  97 SW9       29.80R
BAD AXE        FOG       35  35 100 CALM      29.77R VSB<1/4
CARO           FOG       36  35  99 CALM      29.77R VSB 1/4
DETROIT CITY   CLOUDY    46  46 100 W9        29.78R FOG
DETROIT        CLOUDY    47  43  86 SW16      29.80R
FLINT          FOG       36  35  96 W6        29.78R VSB 3/4 WCI  31
GROSSE ILE     CLOUDY    45  43  95 SW10G16   29.79R FOG
HILLSDALE      FOG       39  37  93 SW13      29.82R VSB 1   WCI  32
HOWELL         FOG       40  39  96 W9        29.79R VSB 3/4 WCI  34

CITY           SKY/WX    TMP DP  RH WIND       PRES   REMARKS
JACKSON        CLOUDY    40  38  93 W18G29    29.81R FOG     WCI  31
LAMBERTVILLE   CLOUDY    47  44  88 W10G18    29.82R
LANSING        FOG       38  35  89 W6        29.81R VSB 3/4 WCI  33
LAPEER         FOG       37  37 100 W5        29.77R VSB 3/4 WCI  33
MASON          FOG       39  39 100 W6        29.80R VSB 1   WCI  35
MONROE         CLOUDY    45  44  98 W14G21    29.81R FOG
MT. CLEMENS    CLOUDY    43  43 100 SW7       29.76R FOG
PONTIAC        CLOUDY    41  39  93 W13       29.76R
PORT HOPE        N/A     34  34 100 CALM      29.75S
PORT HURON     CLOUDY    39  39 100 W3        29.77R FOG
TRI CITIES     FOG       35  35 100 NW5       29.79R VSB 1/4 WCI  31
MIDLAND        FOG       37  36  96 CALM      29.79R VSB 1/4
TROY           CLOUDY    46  43  90 W5        29.79R
SAGINAW HB     CLOUDY    36  34  93 W3        29.78R FOG
$$
MIZ043>046-050>051-056>058-064>065-071>073-077>080-172200-
SOUTHWEST LOWER MICHIGAN

CITY           SKY/WX    TMP DP  RH WIND       PRES   REMARKS
BATTLE CREEK   CLOUDY    39  38  96 W15       29.83R FOG     WCI  31
BENTON HARBOR  CLOUDY    38  37  97 W10       29.88R FOG     WCI  31
BIG RAPIDS     FOG       35  33  95 CALM      29.79R VSB 1
COLDWATER      CLOUDY    40  40 100 W13       29.85R FOG     WCI  33
FREMONT        FOG       35  35 100 CALM      29.81R VSB 1
HOLLAND        CLOUDY    37  36  96 W10       29.84R FOG     WCI  30
GRAND RAPIDS   DRIZZLE   37  35  92 W12       29.81R FOG     WCI  29
IONIA          FOG       35  35  99 W3        29.80R VSB 3/4
KALAMAZOO      CLOUDY    39  36  89 W14       29.86R FOG     WCI  31
LUDINGTON      FOG       36  36 100 CALM      29.81R VSB 1
MARSHALL       CLOUDY    39  38  99 SW14G20   29.82R FOG     WCI  30
MOUNT PLEASANT FOG       35  35  98 CALM      29.79R VSB 3/4
MUSKEGON       DRZL/FOG  37  36  96 W3        29.83R VSB 3/4
SOUTH HAVEN    CLOUDY    37  37  99 W9        29.86R FOG     WCI  31
$$
MIZ016>042-172200-
NORTHERN LOWER MICHIGAN

CITY           SKY/WX    TMP DP  RH WIND       PRES   REMARKS
ALPENA         FOG       35  33  92 E7        29.82R VSB 1   WCI  29
BEAVER ISLAND  CLOUDY    32  32 100 E10       29.86R FOG     WCI  24
BELLAIRE       CLOUDY    35  33  94 CALM      29.83R FOG
CADILLAC       CLOUDY    34  33  96 CALM      29.78R FOG
CHARLEVOIX     CLOUDY    34  34  99 NE7       29.87R FOG     WCI  28
FRANKFORT      CLOUDY    36  36  99 NE3       29.82R FOG
GAYLORD        FOG       34  31  88 NE5       29.80R VSB 1/4 WCI  30
GRAYLING       CLOUDY    34  33  97 NE6       29.80S FOG     WCI  29
HARBOR SPRINGS MIX PCPN  33  32  97 NE7       29.84R WCI  26
HOUGHTON LAKE  CLOUDY    35  33  92 N6        29.79R WCI  30
MANISTEE       MIX PCPN  37  36  93 CALM      29.81R VSB 1/2
OSCODA         FOG       36  35  96 N7        29.77F VSB 3/4 WCI  30
PELLSTON       CLOUDY    33  30  88 E9        29.86R FOG     WCI  25
ROGERS CITY    CLOUDY    34  32  94 E10G17    29.85R FOG     WCI  26
TRAVERSE CITY  CLOUDY    36  33  89 E3        29.81R
$$
MIZ007>008-015-172200-
EASTERN UPPER MICHIGAN

CITY           SKY/WX    TMP DP  RH WIND       PRES   REMARKS
KINROSS        CLOUDY    34  26  72 NE7       29.87R WCI  28
MACKINAC ISLAN CLOUDY    33  30  90 NE8       29.86R WCI  25
NEWBERRY       CLOUDY    33  28  81 N7        29.87R WCI  27
S. S. MARIE    CLOUDY    36  25  64 NE3       29.88R
MUNISING         N/A     34  30  85 CALM      29.88S
$$
MIZ004>006-011>014-085-172200-
CENTRAL UPPER MICHIGAN

CITY           SKY/WX    TMP DP  RH WIND       PRES   REMARKS
MANISTIQUE     CLOUDY    34  33  98 CALM      29.87R
ESCANABA       CLOUDY    35  34  96 NE7       29.87S FOG     WCI  29
SAWYER-GWINN   PTSUNNY   34  28  80 NE10      29.86S WCI  26
$$
MIZ001>003-009>011-084-172200-
WESTERN UPPER MICHIGAN

CITY           SKY/WX    TMP DP  RH WIND       PRES   REMARKS
IRON MOUNTAIN  CLOUDY    37  31  78 N5        29.85R WCI  33
HOUGHTON       SUNNY     36  26  67 W6        29.87S WCI  31
COPPER HARBOR    N/A     36  31  82 NE3       29.90R
IRONWOOD       SUNNY     37  26  64 CALM      29.90R
$$

ABBREVIATIONS USED IN REMARKS
   TC - TEMPERATURE IN CELSIUS
  WCI - WIND CHILL INDEX
   HX - HEAT INDEX
  VSB - VISIBILITY





USA.gov is the U.S. government's official web portal to all federal, state and local government web resources and services.